Regional Weather Roundup
Issued by NWS

Home | Current Version | Previous Version | Graphics & Text | Print | Product List | Glossary Off
Versions: 1 2 3 4 5 6 7 8 9 10 11 12 13 14 15 16 17 18 19 20 21 22 23 24 25 26 27 28 29 30 31 32 33 34 35 36 37 38 39 40 41 42 43 44 45 46 47 48 49 50

000
ASUS43 KTOP 020459
RWRKS

WEATHER ROUNDUP FOR KANSAS
NATIONAL WEATHER SERVICE GOODLAND KS
1200 AM CDT THU OCT 02 2014

NOTE:  "FAIR" INDICATES FEW OR NO CLOUDS BELOW 12,000 FEET WITH NO
SIGNIFICANT WEATHER AND/OR OBSTRUCTIONS TO VISIBILITY.

KSZ001>006-013>018-027>032-041>047-020600-
NORTHWEST KANSAS

CITY           SKY/WX    TMP DP  RH WIND       PRES   REMARKS
GOODLAND       LGT RAIN  50  47  89 N18G26    29.96R
HAYS           CLEAR     61  55  82 NE5       29.76F
HILL CITY      PTCLDY    62  51  67 NW23G32   29.82R
RUSSELL        CLEAR     64  61  90 NE7       29.74S
$$

KSZ061>065-074>080-084>089-020600-
SOUTHWEST KANSAS

CITY           SKY/WX    TMP DP  RH WIND       PRES   REMARKS
DODGE CITY     CLEAR     59  56  89 NE7       29.75F FOG
GARDEN CITY    PTCLDY    61  56  83 NE8       29.77S
GREAT BEND     CLEAR     63  59  88 NE3       29.75S
LIBERAL        PTCLDY    64  50  59 E6        29.77F
$$

KSZ066>073-081>083-090>101-020600-
SOUTHEAST KANSAS

CITY           SKY/WX    TMP DP  RH WIND       PRES   REMARKS
CHANUTE        PTCLDY    74  68  81 S13       29.73S
COFFEYVILLE    CLEAR     76  69  79 S13       29.73S
HUTCHINSON     CLEAR     69  64  84 N10       29.71S
MEDICINE LODGE   N/A     70  66  87 SE9       29.72S
NEWTON         CLEAR     66  59  77 E6        29.73S
PARSONS        LGT RAIN  75  70  84 S8        29.75S
WICHITA INTL   PTCLDY    69  49  48 S12       29.71S
WICHITA JABRA  CLEAR     75  58  55 S13       29.72R
WICHITA MCCONL CLEAR     70  57  63 S8        29.73R
WINFIELD       CLEAR     75  66  73 S5        29.74R
$$

KSZ007>012-019>026-033>040-048>060-102>105-020600-
NORTHEAST KANSAS

CITY           SKY/WX    TMP DP  RH WIND       PRES   REMARKS
CONCORDIA      PTCLDY    64  62  93 E5        29.75F
EMPORIA        CLEAR     67  66  97 E8        29.72S
LAWRENCE       TSTM      66  64  93 SE12      29.78R FOG
MANHATTAN      PTCLDY    66  64  93 NE3       29.73S
OLATHE IND     TSTM      66  63  90 E13G24    29.76F VSB 1/2
OLATHE EXE     TSTM      68  67  96 N8        29.79S FOG
SALINA         CLEAR     69  63  81 W6        29.73S
TOPEKA BILLARD CLOUDY    67  65  93 E5        29.75S
TOPEKA FORBES  CLOUDY    67  64  90 E7        29.75F
$$



USA.gov is the U.S. government's official web portal to all federal, state and local government web resources and services.